Date String (YYYY-MM-DD hh:mm:ss) UTC,Instrument flags,absolute air pressure of the measurement (hPa),sample flow rate (lpm),inlet stack bypass flow (lpm),air temperature of the measurement (°C),ambient temperature measured by the external sensor (°C),aerosol sample conditioner tube jacket temperature (°C),OPC LED temperature (°C),internal box temperature (°C),relative humidity of the measurement (%),span deviation,mass concentration of particles derived from Lorenz-Mie calculation of OPC scattering (μg/m³),mass concentration of particles derived from Lorenz-Mie calculation of OPC scattering (μg/m³),mass concentration of particles derived from Lorenz-Mie calculation of OPC scattering (μg/m³)
DateTimeUTC,F1_M11,P_M11,Q1_M11,Q2_M11,T1_M11,T2_M11,T3_M11,T4_M11,T5_M11,U1_M11,ZSPAN_M11,X2_M11,X0_M11,X1_M11
2024-06-17 05:00:00,SystemResetWarning,0822.8,5.00,000.00,029.9,029.5,000.0,037.9,031.8,032.3,0000.0,0006.01,0021.71,0004.55
2024-06-17 05:01:00,SystemResetWarning,0823.0,4.99,000.00,029.9,028.8,000.0,038.0,031.5,032.3,0000.0,0005.98,0022.10,0004.56
2024-06-17 05:02:00,SystemResetWarning,0822.9,5.01,000.00,029.6,026.8,000.0,038.1,030.5,032.8,0000.0,0005.99,0021.41,0004.57
2024-06-17 05:03:00,SystemResetWarning,0822.7,5.02,000.00,029.3,026.4,000.0,038.0,030.2,033.4,0000.0,0005.99,0022.75,0004.57
2024-06-17 05:04:00,SystemResetWarning,0822.7,5.00,000.00,029.2,026.8,000.0,037.9,030.3,033.7,0000.0,0005.98,0023.44,0004.58
2024-06-17 05:05:00,SystemResetWarning,0822.8,5.00,000.00,029.2,027.2,000.0,037.9,030.6,033.7,0000.0,0006.02,0023.79,0004.59
2024-06-17 05:06:00,SystemResetWarning,0822.8,5.00,000.00,029.3,027.6,000.0,037.8,030.8,033.6,0000.0,0006.13,0022.08,0004.61
2024-06-17 05:07:00,SystemResetWarning,0822.8,4.99,000.00,029.3,027.9,000.0,037.8,031.0,033.5,0000.0,0006.20,0021.68,0004.63
2024-06-17 05:08:00,SystemResetWarning,0822.8,5.00,000.00,029.4,028.2,000.0,037.8,031.1,033.4,0000.0,0006.27,0021.25,0004.64
2024-06-17 05:09:00,SystemResetWarning,0822.8,5.00,000.00,029.4,028.5,000.0,037.8,031.2,033.3,0000.0,0006.28,0021.18,0004.63
2024-06-17 05:10:00,SystemResetWarning,0822.8,5.00,000.00,029.5,028.7,000.0,037.8,031.3,033.2,0000.0,0006.26,0021.04,0004.64
2024-06-17 05:11:00,SystemResetWarning,0822.8,5.01,000.00,029.6,028.9,000.0,037.8,031.4,033.1,0000.0,0006.27,0021.04,0004.64
2024-06-17 05:12:00,SystemResetWarning,0822.7,5.00,000.00,029.6,029.0,000.0,037.8,031.5,033.1,0000.0,0006.26,0020.87,0004.63
2024-06-17 05:13:00,SystemResetWarning,0822.7,5.00,000.00,029.7,029.1,000.0,037.8,031.6,033.0,0000.0,0006.27,0021.87,0004.62
2024-06-17 05:14:00,SystemResetWarning,0823.1,5.00,000.00,029.8,029.3,000.0,037.9,031.6,033.0,0000.0,0006.24,0021.10,0004.61
2024-06-17 05:15:00,SystemResetWarning,0823.3,5.00,000.00,029.8,029.4,000.0,037.9,031.7,032.9,0000.0,0006.27,0021.15,0004.60
2024-06-17 05:16:00,SystemResetWarning,0823.3,5.00,000.00,029.9,029.5,000.0,038.0,031.8,032.8,0000.0,0006.33,0022.75,0004.59
2024-06-17 05:17:00,SystemResetWarning,0823.2,4.99,000.00,029.9,029.5,000.0,038.0,031.8,032.7,0000.0,0006.27,0023.09,0004.59
2024-06-17 05:18:00,SystemResetWarning,0823.1,5.00,000.00,030.0,029.6,000.0,038.0,031.9,032.6,0000.0,0006.25,0022.35,0004.58
2024-06-17 05:19:00,SystemResetWarning,0823.0,4.99,000.00,030.0,029.1,000.0,038.1,031.7,032.5,0000.0,0006.23,0021.97,0004.60
2024-06-17 05:20:00,SystemResetWarning,0822.9,5.00,000.00,029.7,027.0,000.0,038.2,030.7,033.0,0000.0,0006.27,0022.06,0004.61
2024-06-17 05:21:00,SystemResetWarning,0822.6,5.02,000.00,029.4,026.4,000.0,038.2,030.3,033.6,0000.0,0006.33,0022.35,0004.63
2024-06-17 05:22:00,SystemResetWarning,0822.7,5.00,000.00,029.3,026.7,000.0,038.1,030.4,033.8,0000.0,0006.36,0022.92,0004.66
2024-06-17 05:23:00,SystemResetWarning,0822.7,4.99,000.00,029.3,027.1,000.0,038.0,030.6,033.8,0000.0,0006.41,0023.28,0004.69
2024-06-17 05:24:00,SystemResetWarning,0822.7,5.00,000.00,029.3,027.5,000.0,037.9,030.9,033.8,0000.0,0006.48,0023.27,0004.72
2024-06-17 05:25:00,SystemResetWarning,0822.6,5.01,000.00,029.4,027.9,000.0,037.9,031.0,033.7,0000.0,0006.55,0022.87,0004.75
2024-06-17 05:26:00,SystemResetWarning,0822.6,5.00,000.00,029.4,028.2,000.0,037.9,031.1,033.6,0000.0,0006.58,0021.22,0004.78
2024-06-17 05:27:00,SystemResetWarning,0822.6,5.00,000.00,029.5,028.4,000.0,037.9,031.2,033.5,0000.0,0006.58,0019.35,0004.81
2024-06-17 05:28:00,SystemResetWarning,0822.6,5.00,000.00,029.6,028.7,000.0,037.9,031.3,033.4,0000.0,0006.56,0018.67,0004.83
2024-06-17 05:29:00,SystemResetWarning,0822.7,5.00,000.00,029.6,028.9,000.0,037.9,031.4,033.2,0000.0,0006.55,0020.17,0004.85
2024-06-17 05:30:00,SystemResetWarning,0822.6,5.00,000.00,029.7,029.0,000.0,037.9,031.5,033.1,0000.0,0006.54,0021.67,0004.85
2024-06-17 05:31:00,SystemResetWarning,0822.6,5.00,000.00,029.7,029.1,000.0,037.9,031.6,033.0,0000.0,0006.48,0022.68,0004.86
2024-06-17 05:32:00,SystemResetWarning,0822.6,5.00,000.00,029.8,029.3,000.0,038.0,031.6,032.9,0000.0,0006.52,0023.46,0004.86
2024-06-17 05:33:00,SystemResetWarning,0822.9,5.00,000.00,029.9,029.4,000.0,038.0,031.7,032.8,0000.8,0006.56,0023.65,0004.88
2024-06-17 05:34:00,SystemResetWarning,0823.1,4.99,000.00,029.9,029.4,000.0,038.0,031.8,032.7,0001.3,0006.56,0023.81,0004.90
2024-06-17 05:35:00,SystemResetWarning,0823.1,5.00,000.00,030.0,029.5,000.0,038.1,031.8,032.6,0000.4,0006.54,0023.75,0004.90
2024-06-17 05:36:00,SystemResetWarning,0823.1,5.00,000.00,030.0,029.6,000.0,038.1,031.9,032.6,0000.0,0006.49,0024.42,0004.90
2024-06-17 05:37:00,SystemResetWarning,0822.8,5.00,000.00,030.1,029.7,000.0,038.1,031.9,032.5,0000.0,0006.46,0027.33,0004.90
2024-06-17 05:38:00,SystemResetWarning,0822.5,5.01,000.00,030.1,029.5,000.0,038.2,031.8,032.4,0000.0,0006.46,0027.90,0004.90
2024-06-17 05:39:00,SystemResetWarning,0822.5,4.99,000.00,029.9,027.4,000.0,038.3,030.8,032.8,0000.0,0006.50,0028.58,0004.90
2024-06-17 05:40:00,SystemResetWarning,0822.4,5.02,000.00,029.5,026.4,000.0,038.3,030.3,033.5,0000.0,0006.57,0028.43,0004.92
2024-06-17 05:41:00,SystemResetWarning,0822.4,5.00,000.00,029.4,026.6,000.0,038.2,030.4,033.8,0000.0,0006.60,0027.60,0004.96
2024-06-17 05:42:00,SystemResetWarning,0822.4,5.00,000.00,029.3,027.0,000.0,038.1,030.6,033.9,0000.0,0006.70,0026.56,0004.99
2024-06-17 05:43:00,SystemResetWarning,0822.4,5.00,000.00,029.4,027.5,000.0,038.0,030.8,033.9,0000.0,0006.71,0027.24,0005.02
2024-06-17 05:44:00,SystemResetWarning,0822.4,5.00,000.00,029.4,027.8,000.0,038.0,031.0,033.8,0000.0,0006.73,0028.65,0005.05
2024-06-17 05:45:00,SystemResetWarning,0822.4,4.99,000.00,029.5,028.2,000.0,037.9,031.1,033.8,0000.0,0006.74,0029.29,0005.08
2024-06-17 05:46:00,SystemResetWarning,0822.4,4.99,000.00,029.5,028.4,000.0,037.9,031.2,033.7,0000.0,0006.78,0030.56,0005.11
2024-06-17 05:47:00,SystemResetWarning,0822.4,5.00,000.00,029.6,028.7,000.0,037.9,031.3,033.5,0000.0,0006.90,0031.23,0005.16
2024-06-17 05:48:00,SystemResetWarning,0822.4,5.00,000.00,029.6,028.8,000.0,037.9,031.4,033.3,0000.0,0006.97,0029.02,0005.21
2024-06-17 05:49:00,SystemResetWarning,0822.4,5.01,000.00,029.7,029.0,000.0,038.0,031.5,033.3,0000.0,0006.95,0027.31,0005.24
2024-06-17 05:50:00,SystemResetWarning,0822.4,5.00,000.00,029.7,029.1,000.0,038.0,031.6,033.1,0000.4,0006.93,0027.22,0005.25
2024-06-17 05:51:00,SystemResetWarning,0822.4,5.00,000.00,029.8,029.3,000.0,038.0,031.7,033.0,0001.8,0006.93,0027.75,0005.28
2024-06-17 05:52:00,SystemResetWarning,0822.4,4.99,000.00,029.9,029.4,000.0,038.0,031.7,032.9,0002.1,0006.93,0027.86,0005.28
2024-06-17 05:53:00,SystemResetWarning,0822.3,4.99,000.00,029.9,029.4,000.0,038.1,031.8,032.8,0002.4,0006.87,0028.10,0005.28
2024-06-17 05:54:00,SystemResetWarning,0822.3,5.00,000.00,030.0,029.5,000.0,038.1,031.8,032.7,0002.4,0006.80,0026.20,0005.30
2024-06-17 05:55:00,SystemResetWarning,0822.3,5.00,000.00,030.1,029.6,000.0,038.1,031.9,032.6,0002.1,0006.78,0023.70,0005.31
2024-06-17 05:56:00,SystemResetWarning,0822.3,5.01,000.00,030.1,029.7,000.0,038.2,031.9,032.5,0002.2,0006.75,0023.15,0005.33
2024-06-17 05:57:00,SystemResetWarning,0822.3,5.01,000.00,030.2,029.8,000.0,038.2,032.0,032.4,0002.4,0006.77,0021.85,0005.34
2024-06-17 05:58:00,SystemResetWarning,0822.2,4.99,000.00,030.2,029.1,000.0,038.3,031.7,032.4,0000.0,0006.75,0021.75,0005.34
2024-06-17 05:59:00,SystemResetWarning,0822.1,4.99,000.00,029.8,026.6,000.0,038.3,030.5,033.0,0000.0,0006.76,0022.34,0005.34
